Username
Password
 
Info Terbaru :
  

Jackpot hanya dapat di beli di awal sebelum periode tersebut berjalan dan jika berhasil maka anda dapat melihat di sisi kiri bawah atau kiri atas akan terdapat notifikasi bahwa jackpot anda berhasil di beli.

Jika anda membeli jackpot di tengah permainan maka pembelian jackpot akan berlaku untuk periode selanjutnya.

Jackpot Winner Ceme

Jackpot dilihat dari gabungan kartu pemain dengan kartu bandar. Bandar harus membeli jackpot sebanyak jumlah player yang sedang duduk. Sebagai contoh bila terdapat 3 pemain duduk bermain, dan bandar memutuskan untuk membeli jackpot Rp 1.000, maka pada periode tersebut bandar akan membeli jackpot sebanyak 3xRp1.000 = Rp3.000.

Jackpot bukanlah suatu keharusan untuk dibeli, namun kami memberikan suatu fitur tambahan untuk member tercinta dari www.dppkr.com.

Terdapat tiga pilihan harga jackpot yang bisa anda beli yaitu :100,500 dan 1000 rupiah.

Hadiah dari Multi jackpot system www.dppkr.com


  • Murni Kecil x 50 harga jackpot yang anda beli.

    (contoh:anda membeli 1000 maka:1000 X 50 = 50.000)

  • Murni Besar x 50 harga jackpot yang anda beli

    (contoh:anda membeli 1000 maka:1000 X 50 = 50.000)

  • BALAK x 200 harga jackpot yang anda beli

    (contoh:anda membeli 1000 maka:1000 X 200 = 200.000)

  • ENAM DEWA x 6666 harga jackpot yang anda beli

    (contoh:anda membeli 1000 maka:1000 X 6666 = 6.666.000)


Demikian adalah penjelasan dari Multi Jackpot www.dppkr.com terima kasih dan selamat bermain salam hoki dari kami


Jackpot Winner

TOP ENAM DEWA
No. Tanggal Nama Price Win
1 26/03 19:48 MENCRETZ1 murni enam 6,666,000
2 26/03 19:44 KUTULONCAT murni enam 6,666,000
3 26/03 19:44 AXEL135 murni enam 3,333,000
4 26/03 19:29 MUDA598 murni enam 6,666,000
5 26/03 19:29 RGQBMB4U96 murni enam 6,666,000
TOP BALAK
No. Tanggal Nama Price Win
1 26/03 19:54 JPJP_99 balak 200,000
2 26/03 19:54 MIXER_8 balak 20,000
3 26/03 19:54 GONDIL223 balak 200,000
4 26/03 19:54 SAILSENSA balak 200,000
5 26/03 19:54 JRAJ12 balak 100,000
LATEST JACKPOT
No. Tanggal Nama Price Win
1 26/03 19:55 GELOXS murni besar 50,000
2 26/03 19:55 GR4HA_AS murni besar 5,000
3 26/03 19:55 SERPO murni kecil 50,000
4 26/03 19:54 ALID27 murni kecil 25,000
5 26/03 19:54 RICKOPURN murni besar 25,000
6 26/03 19:54 JPJP_99 murni kecil 50,000
7 26/03 19:54 JPJP_99 balak 200,000
8 26/03 19:54 MIXER_8 balak 20,000
9 26/03 19:54 DABU01 murni besar 5,000
10 26/03 19:54 CINHUY murni besar 50,000
11 26/03 19:54 GONDIL223 balak 200,000
12 26/03 19:54 SAILSENSA balak 200,000
13 26/03 19:54 BENTO968 murni kecil 50,000
14 26/03 19:54 TERO22 murni kecil 5,000
15 26/03 19:54 TUYULGOKIL murni besar 5,000
16 26/03 19:54 JRAJ12 balak 100,000
17 26/03 19:54 MIRAGE11 murni kecil 50,000
18 26/03 19:54 MIRAGE11 murni kecil 50,000
19 26/03 19:54 ITUDEWA9 murni kecil 5,000
20 26/03 19:53 GLMPO murni kecil 50,000
21 26/03 19:53 CANGOL378 murni kecil 25,000
22 26/03 19:53 AMOY2408 murni kecil 50,000
23 26/03 19:53 TAICKCK murni besar 25,000
24 26/03 19:53 RIOOO murni kecil 50,000
25 26/03 19:53 M333J333R murni besar 50,000
26 26/03 19:53 AKBAR1910 balak 100,000
27 26/03 19:53 GOSDAR50 balak 20,000
28 26/03 19:53 BUYA1223 murni besar 50,000
29 26/03 19:53 MARK2109 murni kecil 50,000
30 26/03 19:53 NSR6666 murni kecil 50,000
31 26/03 19:53 ADR_07 murni kecil 50,000
32 26/03 19:53 STEMPLET murni besar 50,000
33 26/03 19:53 ALFIE055 murni besar 25,000
34 26/03 19:53 QUALITY88 balak 200,000
35 26/03 19:53 TOPA789 balak 200,000
36 26/03 19:53 ROSSIANA balak 100,000
37 26/03 19:53 WKS0102 murni kecil 25,000
38 26/03 19:53 LULOT murni kecil 25,000
39 26/03 19:53 MUBARA123 murni kecil 25,000
40 26/03 19:52 SODRUN87 murni kecil 50,000
41 26/03 19:52 FAJAR041 murni kecil 50,000
42 26/03 19:52 KUONTOLLL balak 100,000
43 26/03 19:52 AGL886 murni kecil 50,000
44 26/03 19:52 PA6666000 balak 100,000
45 26/03 19:52 JENGGOT198 murni kecil 50,000
46 26/03 19:52 RBOY77 murni kecil 50,000
47 26/03 19:52 ZINGGO23 murni besar 25,000
48 26/03 19:52 BLACK0118 balak 100,000
49 26/03 19:52 MRTAMB001 murni kecil 50,000
50 26/03 19:52 RIDHO53 murni besar 25,000


Situs Poker Online
Dewapoker.com Hadir untuk semua pecinta permainan kartu poker online yang khususnya berada di asia. Dengan system teknology baru dan server kecepatan tinggi akan membuat permainan poker anda lebih seru dan menarik bersama teman2x anda maupun saingan anda. Cukup lakukan login dan langsung bermain tanpa download. Dewapoker.com dengan encrypsi server yang tinggi akan menjamin keamanan data para member.
Terms & Conditions Link Alternatif Cara Bermain Video Dewapoker
© Copyright 2019 Dewa Poker. All right reserved.